Погода Ханты-Мансийск

Хотите узнать прогноз погоды Ханты-Мансийск? Тогда Вам сюда: Погода Ханты-Мансийск

Поиск расширенной информации на нашем сайте:

Полезная информация:

Новости сайта



14.11.2019
Обновлён Долгосрочный прогноз погоды по России и другим странам хСССР на ноябрь-декабрь 2019 года.
Опубликованы прогностические карты: Предварительный прогноз на декабрь 2019 года, Предварительный прогноз на январь 2020 года, Предварительная схема синоптических процессов на декабрь 2019 г..

11.11.2019
Обновлены Долгосрочный прогноз погоды по России и другим странам хСССР на ноябрь-декабрь 2019 года и Предварительный прогноз на зиму 2019/2020 годов

04.11.2019
Опубликован Долгосрочный прогноз погоды по России и другим странам хСССР на ноябрь 2019 года
Сравнение прогнозируемой аномалии приземной температуры воздуха на ноябрь 2019 года по разным моделям
Предварительный прогноз на зиму 2019/2020 года




Погода Ханты-Мансийск - сегодня

Время (UTC), дата Ветер
(°,м/с) 
Видим.   Явления Облачность Т
(°С)
Тd
(°С)
f(%) Тe
(°С)
Pmin
(гПа)
dP
(гПа)
Po
(мм)
O2
(г/м3)
Тmin Tmax R s Состояние
почвы
00 20.11.19 340 (С) 10 км    ясно 
-21.3 -24 79 -26  1040  0.7  775  341           
03 20.11.19 340 (С) 10 км  слаб. снег  10/0 средняя 
[Ac As]
-17.9 -20.4 81 -20  1040.5  0.6  776  336  -22.8    0.0  20  равномерный
сухой снег
100% 
06 20.11.19 310 (СЗ) 10 км  слаб. снег  10/0 средняя 
[Ac As]
-15.2 -17.6 82 -17  1040.7  0.3  776  333           
09 20.11.19 310 (СЗ) 4000 м  слаб. снег  10/0 средняя 
[Ac As]
-14 -16.3 83 -16  1040.6  0.1  776  331           
12 20.11.19 290 (З) 10 км  {снег}  10/0 средняя 
[Ac As]
-15.2 -17.3 84 -17  1040.3  -0.3  776  332           
15 20.11.19 270 (З) 10 км    9/9 600 м 
[Sc]
-16.2 -18.3 84 -19  1038.4  -1.9  774  333    -13.9  0.0     
18 20.11.19 270 (З) 10 км    10/10 600 м 
[Sc]
-13.6 -15.5 86 -17  1034.5  -3.8  771  329           
21 20.11.19 270 (З) 4{10}  10 км    10/10 600 м 
[Sc]
-13.4 -16.1 80 -18  1029.8  -4.7  768  327           
00 21.11.19 280 (З) 3{10}  10 км    10/10 600 м 
[Sc]
-14.3 -17.8 75 -18  1027.6  -2.1  766  327           
03 21.11.19 300 (СЗ) 10 км    8/0 средняя 
[Ac As]
-14.8 -17.8 78 -18  1026.1  -1.5  765  327  -16.2      20  равномерный
сухой снег
100% 
06 21.11.19 290 (З) 10 км    8/0 средняя 
[Ac As]
-13.7 -17 76 -16  1026.2  0.1  765  326           
09 21.11.19 300 (СЗ) 10 км    6/0 средняя, верхняя 
[Ac cast|Ci fib]
-13.5 -16 81 -16  1026.6  0.3  765  326           
12 21.11.19 310 (СЗ) 10 км    8/0 средняя 
[Ac As]
-11.9 -13.9 85 -14  1026.6  0.1  766  324           
15 21.11.19 290 (З) 10 км    6/0 средняя 
[Ac As]
-15.8 -17.4 87 -16  1027.2  0.4  766  329    -11.7       
18 21.11.19 280 (З) 10 км    10/0 средняя 
[Ac As]
-12.8 -14.5 87 -13  1027.1  766  325           
21 21.11.19 290 (З) 10 км  [диам. изморози 0.5 мм]  ясно 
-15.2 -16.9 87 -15  1027  0.1  766  328           
00 22.11.19 тихо ()   10 км  [диам. изморози 0.5 мм]  10/0 средняя 
[Ac As]
-17 -18.8 86 -17  1026.8  -0.3  766  330           
03 22.11.19 180 (Ю) 10 км  [диам. изморози 0.5 мм]  10/0 средняя 
[Ac As]
-13 -14.7 87 -13  1026.8  0.1  766  325  -17.7      20  равномерный
сухой снег
100% 
06 22.11.19 220 (ЮЗ) 10 км  [диам. изморози 0.5 мм]  10/10 600 м 
[Ac As]
-10.8 -12.5 87 -11  1027.6  0.9  766  323           
09 22.11.19 220 (ЮЗ) 10 км  [диам. изморози 0 мм]  8/8 600 м средняя 
[As op]
-8.9 -10.8 86 -11  1027  -0.6  766  320           
12 22.11.19 230 (ЮЗ) 10 км    10/8 300 м средняя 
[Sc|As op]
-8.3 -10.1 87 -10  1026.9  0.1  766  319           
15 22.11.19 220 (ЮЗ) 10 км    5/3 300 м средняя 
[St|As op]
-7.6 -9.6 86 -9  1026  -0.8  765  318    -7.6       
18 22.11.19 240 (ЮЗ) 10 км    10/0 средняя 
[As trans]
-7.3 -9.2 86 -9  1025.1  -0.9  764  317           
21 22.11.19 240 (ЮЗ) 10 км    9/3 1000 м средняя 
[Sc|As op]
-6.8 -8.5 88 -6  1024.2  -0.9  764  317           
00 23.11.19 210 (ЮЗ) 10 км    9/0 средняя 
[As op]
-7.1 -8.4 90 -9  1022.9  -1.3  763  316           
Время (UTC), дата Ветер
(°,м/с) 
Видим.   Явления Облачность Т
(°С)
Тd
(°С)
f(%) Тe
(°С)
Pmin
(гПа)
dP
(гПа)
Po
(мм)
O2
(г/м3)
Тmin Tmax R s Состояние
почвы

Для получения пояснительной информации подведите курсор к названию столбца.

ПОГОДА Ханты-Мансийск - архив

Всё, что Вы хотите узнать о погоде Ханты-Мансийск - удобно и подробно!

Выберите нужную дату (начиная с 1 января 2019* года) и нажмите кнопку "Найти".
Будут отображены архивные сводки погоды по пункту Ханты-Мансийск, начиная с указанной даты.


Отображать данные в формате CSV (для использования в таблицах Excel)


Внимание! Наш архив погоды предназначен исключительно для личного некоммерческого использования в познавательных целях. Если Вам необходимы официальные справки о состоянии погоды (для производственных, юридических, коммерческих и т.п. целей), обращайтесь в органы Росгидромета.

*Примечание: данная дата относится к архиву по метеостанциям СССР (Россия, СНГ, Балтия).
Архив по метеостанциям Зарубежной Европы и Азии (кроме Китая) хранится 10 дней, по другим регионам земного шара (Китай, Африка, Америка, Австралия, Океания) - 1 день.

Ханты-Мансийск - район местоположения метеостанции


Название, широта, долгота, высота метеостанции:
Ханты-Мансийск 61°ш. 69°д. 46 м над ур. моря [Российская Федерация]

Дополнительная информация

В oтличие oт бoльшинства пoгoдных сайтoв мы публикуем пoдрoбную метеoинфoрмацию в детальнoм прoфессиoнальнoм фoрмате.

Характеристики температуры и влажнoсти вoздуха измеряются на высoте 2 м в тени вдали oт зданий и деревьев.
Скoрoсть ветра измеряется на высoте 10 м (на урoвне рoста челoвека скoрoсть ветра ниже в 1.5-2 раза). Если метеoстанция нахoдится в гoрoде или в лесу, тo скoрoсть ветра занижена на 2-4 м/с пo сравнению с oткрытым местoм. Скoрoсть ветра над акватoриями крупных рек и oзёр, а также на вершинах хoлмoв на 2-5 м/с выше, чем в oбычных услoвиях.
Атмoсфернoе давление в разных тoчках местнoсти мoжет значительнo oтличаться oт давления на метеoстанции, в зависимoсти oт услoвий рельефа (при пoдъёме на 10 м давление пoнижается примернo на 1 мм рт.ст.).